DW8673 Jerrabomberra AU current weather conditions

sailwx.info

Wind from 288 at 4 knots gusting 6

Air temperature 14.4° C
Dewpoint 10.5° C

Last reported at 2016-Aug-31 03:48 UTC.
Time now 2016-Aug-31 04:20 UTC

Location: S 35°23' E 149°12'.
View on Google Maps.

See reports from other nearby stations

  
Tides and Currents Weather Stations Pressure Air Temp Water Temp Dewpoint Dewpoint Depression Visibility Wind Speed Wind Dir Waves Ship Positions
date/time (UTC)wind fromknots sea level pressurealtimeterstation pressurevisibilityair tempwater tempwave heightnotes
2016-Aug-31 03:48 288 4 gusting 6 14.4
2016-Aug-31 03:43 299 4 gusting 6 14.4
2016-Aug-31 03:38 314 3 gusting 6 14.4
2016-Aug-31 03:33 298 4 gusting 7 13.9
2016-Aug-31 03:18 308 5 gusting 6 13.9
2016-Aug-31 03:13 289 4 gusting 6 14.4
2016-Aug-31 03:08 294 4 gusting 8 14.4
2016-Aug-31 03:03 314 5 gusting 12 14.4
2016-Aug-31 02:48 292 4 gusting 5 14.4
2016-Aug-31 02:43 003 3 gusting 8 13.9
2016-Aug-31 02:38 324 5 gusting 6 13.9
2016-Aug-31 02:33 336 4 gusting 11 13.9
2016-Aug-31 02:18 306 6 gusting 12 13.9
2016-Aug-31 02:13 332 4 gusting 6 13.9
2016-Aug-31 02:08 299 5 gusting 6 13.9
2016-Aug-31 02:03 264 4 gusting 10 13.9
2016-Aug-31 01:48 313 3 gusting 7 14.4
2016-Aug-31 01:43 300 3 gusting 6 14.4
2016-Aug-31 01:38 247 4 gusting 6 14.4
2016-Aug-31 01:33 333 4 gusting 8 14.4
2016-Aug-31 01:18 299 2 gusting 6 13.9
2016-Aug-31 01:13 312 5 gusting 8 13.9
2016-Aug-31 01:08 292 4 gusting 6 13.9
2016-Aug-31 01:03 303 3 gusting 8 13.9
2016-Aug-31 00:48 347 4 gusting 7 13.9
2016-Aug-31 00:43 327 3 gusting 6 13.9
2016-Aug-31 00:38 346 2 gusting 5 13.9
2016-Aug-31 00:33 276 1 gusting 4 13.9
2016-Aug-31 00:18 298 2 gusting 4 13.3
2016-Aug-31 00:13 266 2 gusting 4 13.3
2016-Aug-31 00:08 324 1 gusting 6 13.3
2016-Aug-31 00:03 322 0 gusting 6 13.3
2016-Aug-30 23:48 310 2 gusting 5 13.3
2016-Aug-30 23:43 351 2 gusting 5 13.3
2016-Aug-30 23:38 295 2 gusting 4 13.3
2016-Aug-30 23:33 006 3 gusting 6 13.3
2016-Aug-30 23:18 349 2 gusting 6 13.3
2016-Aug-30 23:13 009 3 gusting 6 13.3
2016-Aug-30 23:08 318 1 gusting 5 13.3
2016-Aug-30 23:03 340 3 gusting 6 12.8
2016-Aug-30 22:48 019 4 gusting 6 13.3
2016-Aug-30 22:43 318 4 gusting 7 13.3
2016-Aug-30 22:38 278 2 gusting 5 13.3
2016-Aug-30 22:33 346 3 gusting 6 12.8
2016-Aug-30 22:18 339 2 gusting 7 12.8
2016-Aug-30 22:13 322 3 gusting 6 12.8
2016-Aug-30 22:08 321 2 gusting 5 12.8
2016-Aug-30 22:03 310 1 gusting 5 12.8
2016-Aug-30 21:48 353 1 gusting 6 12.8
2016-Aug-30 21:43 332 1 gusting 2 12.8
2016-Aug-30 21:38 335 0 gusting 2 12.8
2016-Aug-30 21:33 284 12.8
2016-Aug-30 21:18 001 0 gusting 2 12.8
2016-Aug-30 21:13 046 2 gusting 4 12.8
2016-Aug-30 21:08 345 2 gusting 4 12.8
2016-Aug-30 21:03 333 1 gusting 4 12.2
2016-Aug-30 20:48 290 0 gusting 4 12.2
2016-Aug-30 20:43 339 1 gusting 4 12.8
2016-Aug-30 20:38 315 1 gusting 4 12.8
2016-Aug-30 20:33 331 1 gusting 5 12.8
2016-Aug-30 20:18 326 3 gusting 6 12.8
2016-Aug-30 20:13 311 2 gusting 5 12.8
2016-Aug-30 20:08 324 2 gusting 5 12.8
2016-Aug-30 20:03 302 4 gusting 7 12.8
2016-Aug-30 19:48 325 4 gusting 6 12.8
2016-Aug-30 19:43 346 4 gusting 6 12.8
2016-Aug-30 19:38 292 2 gusting 6 12.8
2016-Aug-30 19:33 337 2 gusting 7 12.8
2016-Aug-30 19:18 266 3 gusting 5 12.8
2016-Aug-30 19:13 334 2 gusting 6 12.8
2016-Aug-30 19:08 315 3 gusting 6 12.8
2016-Aug-30 19:03 292 3 gusting 5 12.8
2016-Aug-30 18:48 305 4 gusting 7 12.8
2016-Aug-30 18:43 336 4 gusting 6 12.8
2016-Aug-30 18:38 001 3 gusting 6 12.8
2016-Aug-30 18:33 334 3 gusting 8 12.8
2016-Aug-30 18:13 301 2 gusting 7 13.3
2016-Aug-30 18:08 269 4 gusting 6 13.3
2016-Aug-30 18:03 331 5 gusting 8 13.3
2016-Aug-30 17:48 351 4 gusting 7 13.3
2016-Aug-30 17:43 359 4 gusting 6 13.9
2016-Aug-30 17:38 301 4 gusting 6 13.9
2016-Aug-30 17:33 330 2 gusting 7 13.9
2016-Aug-30 17:18 340 2 gusting 6 13.9
2016-Aug-30 17:13 297 2 gusting 6 13.9
2016-Aug-30 17:08 282 2 gusting 5 13.9
2016-Aug-30 17:03 295 1 gusting 4 13.9
2016-Aug-30 16:48 316 0 gusting 5 13.9
2016-Aug-30 16:43 292 1 gusting 2 13.9
2016-Aug-30 16:38 297 1 gusting 4 13.9
2016-Aug-30 16:33 330 2 gusting 5 13.9
2016-Aug-30 16:18 285 1 gusting 2 13.3
2016-Aug-30 16:13 269 1 gusting 2 13.3
2016-Aug-30 16:08 332 1 gusting 4 13.3
2016-Aug-30 16:03 281 1 gusting 2 13.3
2016-Aug-30 15:48 321 0 gusting 1 13.3
2016-Aug-30 15:43 346 0 gusting 1 12.8
2016-Aug-30 15:38 12.8
2016-Aug-30 15:33 287 0 gusting 1 12.8
2016-Aug-30 15:18 052 12.8
2016-Aug-30 15:13 090 12.8
2016-Aug-30 15:08 072 12.8
2016-Aug-30 15:03 090 12.8
2016-Aug-30 14:48 053 12.8
2016-Aug-30 14:43 202 12.8
2016-Aug-30 14:38 248 12.8
2016-Aug-30 14:33 287 0 gusting 1 12.8
2016-Aug-30 14:18 112 12.8
2016-Aug-30 14:13 112 12.8
2016-Aug-30 14:08 112 12.8
2016-Aug-30 14:03 112 12.8
2016-Aug-30 13:48 112 12.2
2016-Aug-30 13:43 112 12.2
2016-Aug-30 13:38 112 12.2
2016-Aug-30 13:33 095 12.2
2016-Aug-30 13:18 345 12.8
2016-Aug-30 13:13 045 12.8
2016-Aug-30 13:08 349 12.8
2016-Aug-30 13:03 050 12.8
2016-Aug-30 12:48 083 0 gusting 0 12.8
2016-Aug-30 12:43 104 0 gusting 0 12.8
2016-Aug-30 12:38 054 12.8
2016-Aug-30 12:33 045 12.8
2016-Aug-30 12:18 071 0 gusting 1 12.8
2016-Aug-30 12:13 056 12.2
2016-Aug-30 12:08 080 12.2
2016-Aug-30 12:03 061 12.2
2016-Aug-30 11:48 090 11.7
2016-Aug-30 11:43 090 12.2
2016-Aug-30 11:38 090 12.2
2016-Aug-30 11:33 090 12.2
2016-Aug-30 11:18 090 12.8
2016-Aug-30 11:13 090 12.8
2016-Aug-30 11:08 090 12.8
2016-Aug-30 11:03 090 12.8
2016-Aug-30 10:48 090 12.8
2016-Aug-30 10:43 090 12.8
2016-Aug-30 10:38 090 12.8
2016-Aug-30 10:33 090 12.8
2016-Aug-30 10:18 225 13.3
2016-Aug-30 10:13 246 13.3
2016-Aug-30 10:08 120 13.3
2016-Aug-30 10:03 188 13.3
2016-Aug-30 09:48 158 14.4
2016-Aug-30 09:43 292 14.4
2016-Aug-30 09:38 045 14.4
2016-Aug-30 09:33 045 14.4
2016-Aug-30 09:18 358 0 gusting 1 14.4
2016-Aug-30 09:13 318 14.4
2016-Aug-30 09:08 270 14.4
2016-Aug-30 09:03 107 0 gusting 1 14.4
2016-Aug-30 08:48 112 14.4
2016-Aug-30 08:43 097 14.4
2016-Aug-30 08:38 090 14.4
2016-Aug-30 08:33 083 14.4
2016-Aug-30 08:18 090 14.4
2016-Aug-30 08:13 089 14.4
2016-Aug-30 08:08 090 14.4
2016-Aug-30 08:03 090 15.0
2016-Aug-30 07:48 338 15.6
2016-Aug-30 07:43 338 15.6
2016-Aug-30 07:38 292 16.1
2016-Aug-30 07:33 288 16.1
2016-Aug-30 07:18 301 1 gusting 2 16.7
2016-Aug-30 07:13 301 1 gusting 2 17.2
2016-Aug-30 07:08 292 1 gusting 2 17.2
2016-Aug-30 07:03 356 1 gusting 4 17.8
2016-Aug-30 06:48 313 2 gusting 2 17.8
2016-Aug-30 06:43 308 1 gusting 4 18.3
2016-Aug-30 06:38 307 2 gusting 6 18.3
2016-Aug-30 06:33 277 2 gusting 6 18.9
2016-Aug-30 06:18 344 2 gusting 5 19.4
2016-Aug-30 06:13 271 2 gusting 5 19.4
2016-Aug-30 06:08 290 2 gusting 5 19.4
2016-Aug-30 06:03 323 3 gusting 6 20.0
2016-Aug-30 05:48 278 4 gusting 6 20.0
2016-Aug-30 05:43 308 3 gusting 6 20.6
2016-Aug-30 05:38 317 2 gusting 6 20.6
2016-Aug-30 05:33 300 3 gusting 6 20.0
2016-Aug-30 05:18 312 4 gusting 6 20.6
2016-Aug-30 05:13 322 2 gusting 6 20.6
2016-Aug-30 05:08 318 4 gusting 6 20.6
2016-Aug-30 05:03 300 3 gusting 8 21.1
2016-Aug-30 04:48 285 2 gusting 6 21.7
2016-Aug-30 04:43 304 2 gusting 6 21.7
2016-Aug-30 04:38 299 3 gusting 6 21.7
2016-Aug-30 04:33 255 2 gusting 6 21.7
2016-Aug-30 04:18 333 3 gusting 6 21.7
2016-Aug-30 04:13 268 3 gusting 4 21.7
2016-Aug-30 04:08 324 2 gusting 5 21.7
2016-Aug-30 04:03 345 1 gusting 6 21.7
2016-Aug-30 03:48 328 2 gusting 6 21.7
2016-Aug-30 03:43 310 4 gusting 7 21.1
2016-Aug-30 03:38 332 3 gusting 5 21.7
2016-Aug-30 03:33 290 2 gusting 7 21.7
2016-Aug-30 03:18 285 2 gusting 5 21.7
2016-Aug-30 03:13 269 2 gusting 5 21.1
2016-Aug-30 03:08 281 2 gusting 5 21.1
2016-Aug-30 03:03 277 2 gusting 6 20.6
2016-Aug-30 02:48 337 2 gusting 5 20.0
2016-Aug-30 02:43 351 1 gusting 5 20.0
2016-Aug-30 02:38 126 1 gusting 2 20.0
2016-Aug-30 02:33 306 1 gusting 4 19.4
2016-Aug-30 02:18 344 2 gusting 5 19.4
2016-Aug-30 02:13 280 1 gusting 5 19.4
2016-Aug-30 02:03 278 1 gusting 4 19.4
2016-Aug-30 01:43 034 1 gusting 5 18.3
2016-Aug-30 01:38 290 1 gusting 2 18.3
2016-Aug-30 01:33 308 0 gusting 2 17.8
2016-Aug-30 01:08 346 1 gusting 4 15.6
2016-Aug-30 01:03 309 0 gusting 1 15.6
2016-Aug-30 00:48 286 1 gusting 2 15.0
2016-Aug-30 00:43 256 0 gusting 0 15.0
2016-Aug-30 00:38 294 0 gusting 1 15.0
2016-Aug-30 00:33 285 1 gusting 2 15.6
2016-Aug-30 00:18 248 0 gusting 1 16.1
2016-Aug-30 00:13 281 1 gusting 2 16.1
2016-Aug-30 00:08 180 0 gusting 0 16.1
2016-Aug-30 00:03 131 16.1
2016-Aug-29 23:48 227 1 gusting 1 14.4
2016-Aug-29 23:43 257 1 gusting 2 13.9
2016-Aug-29 23:38 237 1 gusting 2 13.3
2016-Aug-29 23:33 256 1 gusting 1 12.8
2016-Aug-29 23:18 263 0 gusting 1 11.1
2016-Aug-29 23:08 315 10.6
2016-Aug-29 23:03 251 0 gusting 1 10.0
2016-Aug-29 22:48 266 0 gusting 1 9.4
2016-Aug-29 22:43 248 9.4
2016-Aug-29 22:33 292 0 gusting 1 8.9
2016-Aug-29 22:18 022 8.3
2016-Aug-29 22:13 120 8.3
2016-Aug-29 22:08 056 7.8
2016-Aug-29 22:03 158 7.8
2016-Aug-29 21:43 011 6.7
2016-Aug-29 21:38 180 6.7
2016-Aug-29 21:33 127 6.7
2016-Aug-29 21:18 315 5.6
2016-Aug-29 21:13 202 5.6
2016-Aug-29 21:08 202 5.6
2016-Aug-29 21:03 202 5.0
2016-Aug-29 20:48 248 5.0
2016-Aug-29 20:43 135 5.0
2016-Aug-29 20:38 011 4.4
2016-Aug-29 20:33 4.4
2016-Aug-29 20:18 054 4.4
2016-Aug-29 20:13 090 4.4
2016-Aug-29 20:08 090 4.4
2016-Aug-29 20:03 090 4.4
2016-Aug-29 19:48 090 4.4
2016-Aug-29 19:43 090 4.4
2016-Aug-29 19:38 090 4.4
2016-Aug-29 19:33 090 4.4
2016-Aug-29 19:18 090 5.0
2016-Aug-29 19:13 090 5.0
2016-Aug-29 19:03 068 5.0
2016-Aug-29 18:48 090 5.6
2016-Aug-29 18:43 090 5.6
2016-Aug-29 18:38 090 5.6
2016-Aug-29 18:33 090 5.6
2016-Aug-29 18:13 090 5.6
2016-Aug-29 18:08 090 5.6
2016-Aug-29 18:03 090 5.6
2016-Aug-29 17:43 090 5.6
2016-Aug-29 17:38 090 5.6
2016-Aug-29 17:33 090 5.6
2016-Aug-29 17:18 112 5.6
2016-Aug-29 17:13 146 5.6
2016-Aug-29 17:08 090 5.6
2016-Aug-29 17:03 090 5.6
2016-Aug-29 16:48 111 5.6
2016-Aug-29 16:43 158 5.6
2016-Aug-29 16:38 158 6.1
2016-Aug-29 16:33 158 6.1
2016-Aug-29 16:18 158 6.1
2016-Aug-29 16:13 143 6.1
2016-Aug-29 16:08 135 6.1
2016-Aug-29 16:03 135 6.1
2016-Aug-29 15:48 112 6.7
2016-Aug-29 15:33 020 6.7
2016-Aug-29 15:18 090 6.7
2016-Aug-29 15:13 112 6.7
2016-Aug-29 15:03 112 6.7
2016-Aug-29 14:48 068 6.7
2016-Aug-29 14:43 022 6.7
2016-Aug-29 14:38 090 6.7
2016-Aug-29 14:33 090 6.7
2016-Aug-29 14:18 225 6.7
2016-Aug-29 14:13 241 6.7
2016-Aug-29 14:08 112 6.7
2016-Aug-29 14:03 090 6.7
2016-Aug-29 13:43 202 6.7
2016-Aug-29 13:38 202 6.7
2016-Aug-29 13:33 135 6.7
2016-Aug-29 13:18 263 6.7
2016-Aug-29 13:13 270 6.7
2016-Aug-29 13:08 243 6.7
2016-Aug-29 12:48 041 6.7
2016-Aug-29 12:33 090 6.7
2016-Aug-29 12:18 112 7.2
2016-Aug-29 12:13 101 7.2
2016-Aug-29 12:08 7.2
2016-Aug-29 12:03 045 7.2
2016-Aug-29 11:48 180 7.2
2016-Aug-29 11:43 112 7.2
2016-Aug-29 11:38 090 7.2
2016-Aug-29 11:33 037 7.8
2016-Aug-29 11:18 112 7.8
2016-Aug-29 11:13 142 7.8
2016-Aug-29 11:03 090 7.8
2016-Aug-29 10:48 292 7.2
2016-Aug-29 10:43 094 7.8
2016-Aug-29 10:38 189 7.2
2016-Aug-29 10:13 158 7.2
2016-Aug-29 10:08 130 7.8
2016-Aug-29 10:03 090 7.8
2016-Aug-29 09:48 202 7.8
2016-Aug-29 09:43 234 7.8
2016-Aug-29 09:38 292 7.8
2016-Aug-29 09:33 292 8.3
2016-Aug-29 09:18 225 8.3
2016-Aug-29 09:13 090 8.3
2016-Aug-29 09:08 090 8.3
2016-Aug-29 08:48 158 9.4
2016-Aug-29 08:43 090 9.4
2016-Aug-29 08:38 225 9.4
2016-Aug-29 08:33 248 10.0
2016-Aug-29 08:18 135 10.6
2016-Aug-29 08:13 090 10.6
2016-Aug-29 08:03 090 11.1
2016-Aug-29 07:48 075 12.2
2016-Aug-29 07:38 315 13.3
2016-Aug-29 07:33 315 13.3
2016-Aug-29 07:18 302 1 gusting 1 14.4
2016-Aug-29 07:13 295 0 gusting 1 14.4
2016-Aug-29 07:03 288 0 gusting 1 14.4
2016-Aug-29 06:48 300 1 gusting 2 15.0
2016-Aug-29 06:33 280 2 gusting 5 15.0
2016-Aug-29 06:18 333 2 gusting 4 15.6
2016-Aug-29 06:13 346 2 gusting 4 15.6
2016-Aug-29 06:08 331 1 gusting 4 16.1
2016-Aug-29 06:03 302 0 gusting 2 16.1
2016-Aug-29 05:48 347 0 gusting 2 16.7
2016-Aug-29 05:43 352 1 gusting 2 16.7
2016-Aug-29 05:38 341 0 gusting 2 17.2
2016-Aug-29 05:33 314 1 gusting 4 17.2
2016-Aug-29 05:18 345 2 gusting 4 16.7
2016-Aug-29 05:13 324 0 gusting 4 16.7
2016-Aug-29 05:08 105 1 gusting 2 16.7
2016-Aug-29 05:03 328 1 gusting 4 16.7
2016-Aug-29 04:48 305 2 gusting 4 16.7
2016-Aug-29 04:43 177 1 gusting 4 17.2
2016-Aug-29 04:38 323 2 gusting 4 17.2
2016-Aug-29 04:33 335 1 gusting 5 17.2
2016-Aug-29 04:18 027 1 gusting 1 17.8
2016-Aug-29 04:13 094 1 gusting 2 17.8
2016-Aug-29 04:08 066 0 gusting 1 17.8